Weather History for Palm Springs, CA

Change the Weather History Date:

Thursday, October 18, 2012

  Actual Average Record
Temperature  
Mean Temperature 27 °C 24 °C  
Max Temperature 35 °C 31 °C 43 °C (1991)
Min Temperature 18 °C 17 °C 5 °C (1971)
Degree Days  
Heating Degree Days 0 0  
Month to date heating degree days 0 0  
Since 1 July heating degree days 0 0  
Cooling Degree Days 15 10  
Month to date cooling degree days 290 232  
Year to date cooling degree days 4477 3958  
Growing Degree Days 30 (Base 50)    
Moisture  
Dew Point 10 °C    
Average Humidity 36    
Maximum Humidity 52    
Minimum Humidity 19    
Precipitation  
Precipitation 0.00 mm 0.51 mm 4.06 mm (1963)
Month to date precipitation 0.00 0.22  
Year to date precipitation 1.82 4.11  
Since 1 July precipitation 1.03 1.17  
Snow  
Snow 0.00 cm - - ()
Month to date snowfall 0.0  
Year to date snowfall 0.0  
Since 1 July snowfall 0.0  
Snow Depth 0.00 cm    
Sea Level Pressure  
Sea Level Pressure 1013 hPa    
Wind  
Wind Speed 5 km/h (NNW)    
Max Wind Speed 23 km/h    
Max Gust Speed 27 km/h    
Visibility 16 kilometers    
Events      
T = Trace of Precipitation, MM = Missing Value Source: NWS Daily Summary

Daily Weather History Graph

Daily Weather History Graph

Search for Another Location

Airport:

Trip Planner

Search our weather history database for the weather conditions in past years. The results will help you decide how hot, cold, wet, or windy it might be!

Date:

Astronomy

Oct. 18, 2012 Rise Set
Actual Time 6:53 AM PDT 6:07 PM PDT
Civil Twilight 6:28 AM PDT 6:32 PM PDT
Nautical Twilight 5:59 AM PDT 7:02 PM PDT
Astronomical Twilight 5:30 AM PDT 7:30 PM PDT
Moon 10:30 AM PDT (10/18) 8:56 PM PDT (10/18)
Length of Visible Light 12h 04m
Length of Day
11h 13m
Waxing Crescent, 15% of the Moon is Illuminated
Oct 18
Waxing Crescent
Oct 21
First Quarter
Oct 29
Full
Nov 6
Last Quarter
Nov 13
New

Hourly Weather History & Observations

Time (PDT) Temp. Heat Index Dew Point Humidity Pressure Visibility Wind Dir Wind Speed Gust Speed Precip Events Conditions
12:53 AM 23.9 °C - 6.7 °C 33% 1012.3 hPa 16.1 km NW 9.3 km/h / 2.6 m/s - N/A   Clear
1:53 AM 23.9 °C - 5.0 °C 29% 1012.6 hPa 16.1 km NW 7.4 km/h / 2.1 m/s - N/A   Clear
2:53 AM 23.3 °C - 6.1 °C 33% 1012.5 hPa 16.1 km NNW 7.4 km/h / 2.1 m/s - N/A   Clear
3:53 AM 22.8 °C - 5.6 °C 33% 1012.5 hPa 16.1 km Variable 5.6 km/h / 1.5 m/s - N/A   Clear
4:53 AM 20.6 °C - 8.3 °C 45% 1013.2 hPa 16.1 km Calm Calm - N/A   Clear
5:53 AM 20.6 °C - 6.7 °C 40% 1013.9 hPa 16.1 km Calm Calm - N/A   Clear
6:53 AM 19.4 °C - 8.9 °C 51% 1014.6 hPa 16.1 km WSW 5.6 km/h / 1.5 m/s - N/A   Clear
7:53 AM 22.2 °C - 6.7 °C 37% 1015.4 hPa 16.1 km NW 5.6 km/h / 1.5 m/s - N/A   Clear
8:53 AM 25.0 °C - 9.4 °C 37% 1016.3 hPa 16.1 km Calm Calm - N/A   Clear
9:53 AM 27.2 °C 26.9 °C 11.7 °C 38% 1016.3 hPa 16.1 km Calm Calm - N/A   Clear
10:53 AM 28.9 °C 28.3 °C 13.3 °C 38% 1015.9 hPa 16.1 km SE 5.6 km/h / 1.5 m/s - N/A   Clear
11:53 AM 30.6 °C - 10.0 °C 28% 1015.4 hPa 16.1 km ENE 5.6 km/h / 1.5 m/s - N/A   Scattered Clouds
12:53 PM 31.7 °C - 8.3 °C 23% 1014.3 hPa 16.1 km Calm Calm - N/A   Clear
1:53 PM 33.9 °C - 8.3 °C 20% 1013.2 hPa 16.1 km NE 5.6 km/h / 1.5 m/s - N/A   Scattered Clouds
2:53 PM 33.9 °C - 6.7 °C 18% 1012.5 hPa 16.1 km Variable 7.4 km/h / 2.1 m/s - N/A   Scattered Clouds
3:53 PM 34.4 °C - 7.2 °C 18% 1012.1 hPa 16.1 km Variable 7.4 km/h / 2.1 m/s - N/A   Scattered Clouds
4:53 PM 33.9 °C - 8.3 °C 20% 1011.9 hPa 16.1 km ENE 9.3 km/h / 2.6 m/s - N/A   Scattered Clouds
5:53 PM 31.1 °C 30.5 °C 14.4 °C 36% 1011.9 hPa 16.1 km NW 18.5 km/h / 5.1 m/s - N/A   Scattered Clouds
6:53 PM 29.4 °C 29.0 °C 14.4 °C 40% 1012.3 hPa 16.1 km Calm Calm - N/A   Clear
7:53 PM 28.9 °C 28.8 °C 15.0 °C 43% 1012.8 hPa 16.1 km NNW 7.4 km/h / 2.1 m/s - N/A   Clear
8:53 PM 27.2 °C 27.4 °C 15.0 °C 47% 1013.1 hPa 16.1 km NW 9.3 km/h / 2.6 m/s - N/A   Clear
9:53 PM 26.1 °C - 15.0 °C 50% 1013.4 hPa 16.1 km NW 18.5 km/h / 5.1 m/s - N/A   Clear
10:53 PM 25.0 °C - 15.0 °C 54% 1013.5 hPa 16.1 km NW 18.5 km/h / 5.1 m/s - N/A   Clear
11:53 PM 24.4 °C - 15.0 °C 56% 1013.1 hPa 16.1 km WNW 9.3 km/h / 2.6 m/s - N/A   Clear